This is the latest recevied weather packets stored in our database for station/object N6GPM. If no packets are shown the sender has not sent any weather packets the latest 10 day(s).
| Time | Temp. | Humidity | Pressure | Rain* | Wind** | Luminosity | Snow |
|---|---|---|---|---|---|---|---|
| 1777771566 | 23.89° C | 55% | 1014.1 hPa | 0 mm | - | 43 W/m² | - |
| 1777769444 | 25° C | 53% | 1014 hPa | 0 mm | - | 178 W/m² | - |
| 1777766110 | 25° C | 49% | 1014 hPa | 0 mm | - | 397 W/m² | - |
| 1777765504 | 25° C | 50% | 1013.9 hPa | 0 mm | - | 422 W/m² | - |
| 1777764290 | 25.56° C | 51% | 1014 hPa | 0 mm | - | 470 W/m² | - |
| 1777761563 | 25.56° C | 50% | 1014.4 hPa | 0 mm | - | 442 W/m² | - |
| 1777761261 | 26.11° C | 51% | 1014.4 hPa | 0 mm | - | 406 W/m² | - |
| 1777760959 | 26.11° C | 50% | 1014.5 hPa | 0 mm | - | 525 W/m² | - |
| 1777760351 | 26.11° C | 51% | 1014.5 hPa | 0 mm | - | 673 W/m² | - |
| 1777760048 | 26.67° C | 50% | 1014.8 hPa | 0 mm | - | 564 W/m² | - |
| 1777759745 | 27.22° C | 51% | 1014.9 hPa | 0 mm | - | 659 W/m² | - |
| 1777759441 | 27.22° C | 47% | 1014.9 hPa | 0 mm | - | 685 W/m² | - |
| 1777759137 | 26.67° C | 48% | 1014.9 hPa | 0 mm | - | 627 W/m² | - |
| 1777758532 | 26.67° C | 45% | 1015.5 hPa | 0 mm | - | 546 W/m² | - |
| 1777757926 | 25.56° C | 44% | 1015.4 hPa | 0 mm | - | 594 W/m² | - |
| 1777757623 | 26.11° C | 48% | 1015.3 hPa | 0 mm | - | 736 W/m² | - |
| 1777757322 | 26.11° C | 47% | 1015.5 hPa | 0 mm | - | 527 W/m² | - |
| 1777757020 | 26.11° C | 48% | 1015.7 hPa | 0 mm | - | 695 W/m² | - |
| 1777756717 | 26.11° C | 46% | 1015.6 hPa | 0 mm | - | 672 W/m² | - |
| 1777756412 | 26.11° C | 47% | 1015.8 hPa | 0 mm | - | 584 W/m² | - |
| 1777756110 | 26.11° C | 44% | 1015.7 hPa | 0 mm | - | 617 W/m² | - |
| 1777755504 | 25.56° C | 45% | 1015.8 hPa | 0 mm | - | 592 W/m² | - |
| 1777754292 | 25° C | 50% | 1016.1 hPa | 0 mm | - | 607 W/m² | - |
| 1777750657 | 23.33° C | 58% | 1016.9 hPa | 0 mm | - | 687 W/m² | - |
| 1777750055 | 23.33° C | 56% | 1016.9 hPa | 0 mm | - | 730 W/m² | - |
* Rain latest hour (hover to see other rain measurements)
** Current wind speed in m/s (hover to see current wind gust speed)